Tracking 19164 objects as of 20-May-2018
HD Live streaming from Space Station
objects crossing your sky now

ELEKTRON 3

Track ELEKTRON 3 now!
10-day predictions
ELEKTRON 3 is classified as:


NORAD ID: 829
Int'l Code: 1964-038A
Perigee: 412.3 km
Apogee: 6,175.2 km
Inclination: 60.8 °
Period: 157.6 minutes
Semi major axis: 9664 km
RCS: 2.8255 m2 (large)
Launch date: July 10, 1964
Source: Commonwealth of Independent States (former USSR) (CIS)
Launch site: TYURATAM MISSILE AND SPACE COMPLEX (TTMTR)
aabbcc
Your satellite tracking list
Your tracking list is empty




NASA's NSSDC Master Catalog

Two Line Element Set (TLE):
1 00829U 64038A   18140.40488694  .00000026  00000-0  21774-4 0  9990
2 00829  60.8245 289.4052 2981371 286.2078  43.4136  9.13728985745188
Source of the keplerian elements: AFSPC